sat.trackr.live / text

‹ back to catalog

UNKNOWN

NORAD 81329

UNKNOWN UNKNOWN UNKNOWN

§ Identity

Operator
Country
Launch date
Launch site
Launch vehicle
Mass (kg)
RCS (m²)

External: N2YO · Heavens-Above

§ Orbital elements

Epoch: 2026-05-23T04:55:33.445344Z

Period
108.85 min
Inclination
65.8182°
Eccentricity
0.0840194
Mean motion
13.22926276 rev/d
Perigee alt
539.1 km
Apogee alt
1,808.1 km
Semi-major
7,551.7 km
B*
5.4917e-4
RAAN
120.5104°
Arg perigee
316.9346°
Mean anomaly
36.8792°
Rev number
59,943

§ Raw data

UNKNOWN1 81329U          26143.20524821  .00001554  00000+0  54917-3 0  99962 81329  65.8182 120.5104 0840194 316.9346  36.8792 13.22926276599431

JSON: /api/v1/satellites/81329 · /tle

For live sub-satellite position, see the globe view (requires WebGL).

§ Visibility from observer

Set your observer location to see the next 7 days of passes ≥ 10°. The values pass through the URL so the page stays shareable.

No JS? Fill the form by hand. The geolocation button needs JavaScript.